CW7052 Weather Reports


time (UTC)temp
C
wind
direction
speed
KPH
gust
KPH
rain 1hr
cm
rain 24hr
cm
rain mn
cm
humidity
%
barometer
mb
20260507040251 13 337 0.0 0.0 0.00 0.00 0.00 88 1019.2
20260507035251 13 337 0.0 0.0 0.00 0.00 0.00 87 1019.2
20260507034252 14 337 0.0 0.0 0.00 0.00 0.00 86 1019.1
20260507033252 14 337 0.0 0.0 0.00 0.00 0.00 85 1019.0
20260507032251 15 337 0.0 1.6 0.00 0.00 0.00 85 1018.9
20260507031251 15 337 0.0 0.0 0.00 0.00 0.00 84 1018.7
20260507030253 15 337 0.0 0.0 0.00 0.00 0.00 83 1018.6
20260507025252 16 337 0.0 0.0 0.00 0.00 0.00 81 1018.5
20260507024251 16 337 0.0 0.0 0.00 0.00 0.00 80 1018.2
20260507023255 17 337 0.0 1.6 0.00 0.00 0.00 79 1018.1
20260507022251 17 337 0.0 0.0 0.00 0.00 0.00 78 1018.1
20260507021251 17 339 0.0 0.0 0.00 0.00 0.00 77 1018.0
20260507020251 18 339 0.0 0.0 0.00 0.00 0.00 76 1017.9
20260507015251 18 339 0.0 0.0 0.00 0.00 0.00 75 1017.8
20260507014250 18 339 0.0 0.0 0.00 0.00 0.00 74 1017.8
20260507013250 19 339 0.0 0.0 0.00 0.00 0.00 73 1017.7
20260507012251 20 339 0.0 0.0 0.00 0.00 0.00 72 1017.7
20260507011251 20 339 0.0 1.6 0.00 0.00 0.00 72 1017.7
20260507010250 20 347 0.0 1.6 0.00 0.00 0.00 71 1017.5
20260507005251 21 250 0.0 1.6 0.00 0.00 0.00 70 1017.4
20260507004251 21 275 0.0 1.6 0.00 0.00 0.00 69 1017.3
20260507003251 21 343 0.0 1.6 0.00 0.00 0.00 68 1017.2
20260507002252 22 343 0.0 4.8 0.00 0.00 0.00 68 1017.0
20260507001254 22 178 0.0 1.6 0.00 0.00 0.00 67 1017.1
20260507000253 22 246 0.0 1.6 0.00 0.00 0.00 67 1017.0
20260506235251 22 229 0.0 1.6 0.00 0.00 0.00 66 1016.9
20260506234251 22 344 0.0 0.0 0.00 0.00 0.00 66 1017.0
20260506233251 22 344 0.0 1.6 0.00 0.00 0.00 65 1017.1
20260506232251 23 276 0.0 1.6 0.00 0.00 0.00 63 1016.9
20260506231254 24 287 0.0 1.6 0.00 0.00 0.00 60 1016.9
20260506230251 25 264 0.0 1.6 0.00 0.00 0.00 58 1016.9
20260506225250 26 268 0.0 1.6 0.00 0.00 0.00 56 1016.9
20260506224251 26 239 0.0 1.6 0.00 0.00 0.00 56 1016.9
20260506223254 26 243 0.0 1.6 0.00 0.00 0.00 56 1016.9
20260506222254 26 261 0.0 4.8 0.00 0.00 0.00 55 1017.0
20260506221250 26 206 0.0 3.2 0.00 0.00 0.00 54 1017.1
20260506220251 26 183 1.6 9.7 0.00 0.00 0.00 53 1017.2
20260506215254 26 167 0.0 6.4 0.00 0.00 0.00 56 1017.3
20260506214252 26 218 0.0 9.7 0.00 0.00 0.00 52 1017.4
20260506213250 26 187 0.0 9.7 0.00 0.00 0.00 53 1017.5
20260506212250 26 182 0.0 8.0 0.00 0.00 0.00 54 1017.6
20260506211251 26 88 0.0 6.4 0.00 0.00 0.00 54 1017.7
20260506210250 25 195 0.0 1.6 0.00 0.00 0.00 54 1017.7
20260506205254 25 210 0.0 8.0 0.00 0.00 0.00 55 1017.8
20260506204253 25 201 0.0 6.4 0.00 0.00 0.00 56 1017.9
20260506203250 25 184 0.0 3.2 0.00 0.00 0.00 57 1018.0
20260506202251 24 164 0.0 6.4 0.00 0.00 0.00 57 1018.3
20260506201251 23 31 0.0 0.0 0.00 0.00 0.00 60 1018.4
20260506200251 23 31 0.0 1.6 0.00 0.00 0.00 60 1018.5
20260506195251 22 54 0.0 4.8 0.00 0.00 0.00 63 1018.7
20260506194251 22 312 0.0 1.6 0.00 0.00 0.00 60 1018.8
20260506193251 22 312 0.0 1.6 0.00 0.00 0.00 63 1018.8
20260506192250 22 250 0.0 1.6 0.00 0.00 0.00 60 1019.0
20260506191251 22 243 0.0 0.0 0.00 0.00 0.00 63 1018.9
20260506190250 22 243 0.0 1.6 0.00 0.00 0.00 59 1018.9
20260506185252 22 174 0.0 1.6 0.00 0.00 0.00 60 1019.0
20260506184253 22 75 0.0 1.6 0.00 0.00 0.00 62 1019.2
20260506183252 22 60 3.2 4.8 0.00 0.00 0.00 63 1019.2
20260506182251 21 232 0.0 1.6 0.00 0.00 0.00 64 1019.3
20260506181251 21 252 0.0 0.0 0.00 0.00 0.00 65 1019.3
20260506180250 21 252 0.0 1.6 0.00 0.00 0.00 64 1019.4
20260506175254 20 145 0.0 1.6 0.00 0.00 0.00 69 1019.4
20260506174252 20 145 0.0 1.6 0.00 0.00 0.00 68 1019.5
20260506173251 20 145 0.0 0.0 0.00 0.00 0.00 69 1019.6
20260506172251 20 145 0.0 0.0 0.00 0.00 0.00 71 1019.6
20260506171251 18 145 0.0 4.8 0.00 0.00 0.00 73 1019.7
20260506170254 17 83 0.0 1.6 0.00 0.00 0.00 78 1019.8
20260506165251 17 45 0.0 1.6 0.00 0.00 0.00 83 1019.8
20260506164254 16 45 0.0 0.0 0.00 0.00 0.00 85 1019.9
20260506163251 15 291 0.0 0.0 0.00 0.00 0.00 91 1020.0
20260506162251 13 291 0.0 0.0 0.00 0.00 0.00 92 1020.1
20260506161251 13 291 0.0 0.0 0.00 0.00 0.00 93 1020.2
20260506160250 12 291 0.0 0.0 0.00 0.00 0.00 93 1020.2
20260506155251 12 291 0.0 0.0 0.00 0.00 0.00 93 1020.3
20260506154251 12 291 0.0 0.0 0.00 0.00 0.00 93 1020.2
20260506153250 12 291 0.0 0.0 0.00 0.00 0.00 93 1020.2
20260506152251 12 291 0.0 0.0 0.00 0.00 0.00 93 1020.2
20260506151250 12 291 0.0 0.0 0.00 0.00 0.00 93 1020.2
20260506150251 12 291 0.0 0.0 0.00 0.00 0.00 93 1020.3
20260506145250 12 291 0.0 0.0 0.00 0.00 0.00 94 1020.3
20260506144251 12 291 0.0 0.0 0.00 0.00 0.00 94 1020.4
20260506143251 11 291 0.0 0.0 0.00 0.00 0.00 94 1020.4
20260506142251 11 291 0.0 0.0 0.00 0.00 0.00 95 1020.4
20260506141250 11 291 0.0 0.0 0.00 0.00 0.00 94 1020.4
20260506140250 11 291 0.0 0.0 0.00 0.00 0.00 94 1020.3
20260506135250 11 291 0.0 0.0 0.00 0.00 0.00 94 1020.0
20260506134250 11 291 0.0 0.0 0.00 0.00 0.00 94 1019.9
20260506133250 11 291 0.0 0.0 0.00 0.00 0.00 94 1019.8
20260506132250 11 291 0.0 0.0 0.00 0.00 0.00 94 1019.7
20260506131250 11 291 0.0 0.0 0.00 0.00 0.00 94 1019.7
20260506130251 11 291 0.0 0.0 0.00 0.00 0.00 94 1019.5
20260506125250 11 291 0.0 0.0 0.00 0.00 0.00 94 1019.5
20260506124250 11 291 0.0 0.0 0.00 0.00 0.00 94 1019.4
20260506123250 11 291 0.0 0.0 0.00 0.00 0.00 94 1019.3
20260506122251 11 291 0.0 0.0 0.00 0.00 0.00 94 1019.3
20260506121250 11 291 0.0 0.0 0.00 0.00 0.00 94 1019.2
20260506120251 11 291 0.0 0.0 0.00 0.00 0.00 94 1019.2
20260506115253 11 291 0.0 0.0 0.00 0.00 0.00 94 1019.1
20260506114251 11 291 0.0 0.0 0.00 0.00 0.00 94 1019.1
20260506113251 11 291 0.0 0.0 0.00 0.00 0.00 93 1019.1
20260506112250 11 291 0.0 0.0 0.00 0.00 0.00 93 1019.1
20260506111253 11 291 0.0 0.0 0.00 0.00 0.00 93 1019.0
20260506110251 11 291 0.0 0.0 0.00 0.00 0.00 93 1018.9
20260506105251 11 291 0.0 0.0 0.00 0.00 0.00 93 1018.9
20260506104251 11 291 0.0 0.0 0.00 0.00 0.00 93 1018.9
20260506103251 11 291 0.0 0.0 0.00 0.00 0.00 93 1018.9
20260506102250 11 291 0.0 0.0 0.00 0.00 0.00 93 1019.0
20260506101250 11 291 0.0 0.0 0.00 0.00 0.00 93 1019.0
20260506100250 11 291 0.0 0.0 0.00 0.00 0.00 93 1018.9
20260506095252 11 291 0.0 0.0 0.00 0.00 0.00 93 1019.0
20260506094250 11 291 0.0 0.0 0.00 0.00 0.00 93 1019.1
20260506093253 11 291 0.0 0.0 0.00 0.00 0.00 92 1019.1
20260506092251 11 291 0.0 0.0 0.00 0.00 0.00 92 1019.0
20260506091251 11 291 0.0 0.0 0.00 0.00 0.00 92 1018.8
20260506090250 11 291 0.0 0.0 0.00 0.00 0.00 91 1018.7
20260506085250 11 291 0.0 0.0 0.00 0.00 0.00 91 1018.7
20260506084251 11 291 0.0 0.0 0.00 0.00 0.00 91 1018.8
20260506083251 12 291 0.0 0.0 0.00 0.00 0.00 91 1018.8
20260506082253 12 291 0.0 0.0 0.00 0.00 0.00 91 1018.8
20260506081250 12 291 0.0 0.0 0.00 0.00 0.00 90 1018.8
20260506080251 12 291 0.0 0.0 0.00 0.00 0.00 90 1018.8
20260506073250 12 291 0.0 0.0 0.00 0.00 0.00 89 1018.5
20260506072252 12 291 0.0 0.0 0.00 0.00 0.00 90 1018.6
20260506071250 12 291 0.0 0.0 0.00 0.00 0.00 90 1018.5
20260506070250 12 291 0.0 0.0 0.00 0.00 0.00 89 1018.5
20260506062250 12 291 0.0 0.0 0.00 0.00 0.00 89 1018.2
20260506061250 12 291 0.0 0.0 0.00 0.00 0.00 89 1018.1
20260506060250 12 291 0.0 0.0 0.00 0.00 0.00 89 1018.1
20260506051250 13 291 0.0 0.0 0.00 0.00 0.00 88 1017.9
20260506050250 13 291 0.0 0.0 0.00 0.00 0.00 87 1017.9
20260506044251 13 291 0.0 0.0 0.00 0.00 0.00 86 1017.7
20260506043251 13 291 0.0 0.0 0.00 0.00 0.00 86 1017.5
20260506042251 13 291 0.0 0.0 0.00 0.00 0.00 86 1017.5
20260506041254 13 291 0.0 0.0 0.00 0.00 0.00 85 1017.4